Location: Naloco
(16.5478°S, 37.1017°E)
Time: 02:59:18
(UTC+00:00)

Cosmos 304 Rocket - Pass Details

Date: 13 August 2020
Orbit: 680 x 686 km, 74.0° (Epoch: 23 September)

Event Time Altitude Azimuth Distance (km) Brightness Sun altitude
Rises 16:01:36 0° 339° (NNW) 3,022 7.6 -9.9°
Reaches altitude 10° 16:03:55 10° 334° (NNW) 2,113 6.8 -10.5°
Maximum altitude 16:08:35 57° 256° (WSW) 806 4.5 -11.6°
Drops below altitude 10° 16:13:18 10° 177° (S) 2,133 6.2 -12.7°
Sets 16:15:39 0° 173° (S) 3,053 6.9 -13.2°
